User: anonymous   Login
Location: Pian di Sc�
(43.6333°N, 11.5500°E)
Time: 20:18:22
(UTC+00:00)
Language:

NPP - Orbit

View from above orbital plane
View from above orbital plane
View from above satellite
View from above satellite

Ground track
Ground track

The orbit data is extracted from the following two-line orbital elements,

1 37849U 11061A   20304.46031750  .00000018  00000-0  29138-4 0  9991
2 37849  98.7119 240.4839 0000761 104.9398   3.8904 14.19558468466771
Epoch (UTC): 30 October 2020 11:02:51
Eccentricity: 0.0000761
inclination: 98.7119°
perigee height: 826 km
apogee height: 827 km
right ascension of ascending node: 240.4839°
argument of perigee: 104.9398°
revolutions per day: 14.19558468
mean anomaly at epoch: 3.8904°
orbit number at epoch: 46677

The dashed part of the orbit path shows where the satellite is in the earth's shadow,  

DLR